Retour au catalogue

STARLINK-37433

ActifCommunicationsVLEO
NORAD 69841·PAYLOAD·🇺🇸 United States

Lancé Jul 5, 2026 depuis Cape Canaveral Space Force Station

Loading…

Prochains Passages (prochaines 24 heures)

TLE

FraisSource: CelesTrak SupGP

Époque: Sep 14, 2026, 21:31 UTC

1 69841C 26154Y   26257.89701389 -.00005455  00000+0 -16116-3 0  2578
2 69841  53.1591 358.2169 0001123  71.7609 280.0732 15.34392326    16

Suivez STARLINK-37433 en temps réel avec AllMySat

Download on the App Store